CW3783 Weather Reports


time (UTC)temp
F
wind
direction
speed
knots
gust
knots
rain 1hr
in
rain 24hr
in
rain mn
in
humidity
%
barometer
mb
20260504070303 50 219 2.6 4.3 0.00 0.00 0.00 60 1013.9
20260504050304 49 251 1.7 6.1 0.00 0.00 0.00 57 1013.9
20260504045804 50 221 1.7 4.3 0.00 0.00 0.00 57 1014.0
20260504045304 50 208 1.7 2.6 0.00 0.00 0.00 56 1014.0
20260504044803 50 208 1.7 2.6 0.00 0.00 0.00 55 1013.9
20260504044304 50 220 2.6 7.0 0.00 0.00 0.00 54 1014.0
20260504043804 50 241 2.6 6.1 0.00 0.00 0.00 54 1014.0
20260504043304 50 238 2.6 5.2 0.00 0.00 0.00 54 1013.9
20260504042803 50 242 2.6 4.3 0.00 0.00 0.00 55 1013.9
20260504042304 50 196 1.7 5.2 0.00 0.00 0.00 54 1014.0
20260504041304 50 257 2.6 2.6 0.00 0.00 0.00 53 1013.9
20260504040804 50 260 1.7 4.3 0.00 0.00 0.00 54 1013.9
20260504040304 50 208 2.6 7.8 0.00 0.00 0.00 53 1013.9
20260504035803 49 253 3.5 6.1 0.00 0.00 0.00 53 1013.8
20260504034803 49 251 3.5 6.1 0.00 0.00 0.00 55 1013.8
20260504034303 49 233 1.7 6.1 0.00 0.00 0.00 55 1013.7
20260504033803 50 223 1.7 2.6 0.00 0.00 0.00 56 1013.7
20260504033303 50 190 1.7 2.6 0.00 0.00 0.00 54 1013.6
20260504032803 50 230 0.9 2.6 0.00 0.00 0.00 53 1013.5
20260504032304 50 265 0.9 2.6 0.00 0.00 0.00 52 1013.4
20260504031803 50 262 1.7 2.6 0.00 0.00 0.00 52 1013.4
20260504030803 51 247 0.9 2.6 0.00 0.00 0.00 51 1013.4
20260504030303 51 256 1.7 2.6 0.00 0.00 0.00 51 1013.4
20260504025803 51 242 1.7 4.3 0.00 0.00 0.00 51 1013.4
20260504025304 51 238 1.7 2.6 0.00 0.00 0.00 50 1013.5
20260504024803 51 239 0.9 2.6 0.00 0.00 0.00 50 1013.4
20260504024303 51 244 1.7 2.6 0.00 0.00 0.00 49 1013.4
20260504023803 51 233 2.6 4.3 0.00 0.00 0.00 49 1013.4
20260504022803 51 236 1.7 4.3 0.00 0.00 0.00 52 1013.4
20260504022304 51 219 1.7 2.6 0.00 0.00 0.00 52 1013.4
20260504021803 51 224 1.7 2.6 0.00 0.00 0.00 51 1013.4
20260504021304 52 229 1.7 2.6 0.00 0.00 0.00 51 1013.3
20260504020803 52 234 1.7 2.6 0.00 0.00 0.00 50 1013.2
20260504015804 52 246 1.7 2.6 0.00 0.00 0.00 50 1013.3
20260504015305 52 246 0.9 2.6 0.00 0.00 0.00 49 1013.3
20260504014803 53 246 0.9 1.7 0.00 0.00 0.00 47 1013.3
20260504014303 53 246 0.9 1.7 0.00 0.00 0.00 46 1013.2
20260504013304 53 236 1.7 4.3 0.00 0.00 0.00 44 1013.2
20260504012304 54 237 1.7 2.6 0.00 0.00 0.00 44 1013.1
20260504011804 54 245 1.7 2.6 0.00 0.00 0.00 44 1013.1
20260504011304 55 245 1.7 2.6 0.00 0.00 0.00 43 1013.1
20260504010804 55 245 1.7 2.6 0.00 0.00 0.00 42 1013.0
20260504010304 55 245 1.7 2.6 0.00 0.00 0.00 42 1013.0
20260504005803 56 245 1.7 2.6 0.00 0.00 0.00 42 1013.0
20260504005306 56 245 1.7 2.6 0.00 0.00 0.00 41 1012.9
20260504004803 56 247 1.7 2.6 0.00 0.00 0.00 41 1012.8
20260504003803 56 264 0.9 2.6 0.00 0.00 0.00 40 1012.7
20260504003304 57 254 0.9 2.6 0.00 0.00 0.00 39 1012.7
20260504002803 57 243 1.7 2.6 0.00 0.00 0.00 38 1012.7
20260504002304 57 242 1.7 2.6 0.00 0.00 0.00 37 1012.6
20260504001805 58 247 0.9 2.6 0.00 0.00 0.00 37 1012.6
20260504001304 58 238 0.9 2.6 0.00 0.00 0.00 37 1012.6
20260504000803 58 283 0.9 1.7 0.00 0.00 0.00 37 1012.5
20260503235304 59 258 0.9 2.6 0.00 0.00 0.00 35 1012.4
20260503234803 59 287 1.7 5.2 0.00 0.00 0.00 36 1012.4
20260503234303 59 302 1.7 5.2 0.00 0.00 0.00 35 1012.4
20260503233804 59 289 1.7 5.2 0.00 0.00 0.00 35 1012.3
20260503233303 60 252 1.7 4.3 0.00 0.00 0.00 35 1012.2
20260503232804 60 297 1.7 2.6 0.00 0.00 0.00 34 1012.2
20260503232305 60 275 0.9 2.6 0.00 0.00 0.00 34 1012.1
20260503231804 60 294 1.7 2.6 0.00 0.00 0.00 34 1012.0
20260503231304 60 275 0.9 6.1 0.00 0.00 0.00 33 1012.1
20260503230803 61 294 5.2 7.0 0.00 0.00 0.00 33 1012.1
20260503230303 61 292 2.6 6.1 0.00 0.00 0.00 33 1012.0
20260503225304 61 330 4.3 8.7 0.00 0.00 0.00 32 1012.0
20260503224804 61 348 1.7 2.6 0.00 0.00 0.00 32 1012.1
20260503224303 62 304 4.3 11.3 0.00 0.00 0.00 31 1012.1
20260503223803 62 300 5.2 10.4 0.00 0.00 0.00 31 1012.2
20260503223304 62 300 5.2 11.3 0.00 0.00 0.00 31 1012.1
20260503222803 63 299 5.2 8.7 0.00 0.00 0.00 30 1012.1
20260503222304 63 296 6.1 12.2 0.00 0.00 0.00 30 1012.1
20260503221804 63 256 3.5 10.4 0.00 0.00 0.00 30 1012.1
20260503221303 63 313 3.5 7.8 0.00 0.00 0.00 30 1012.1
20260503220803 64 207 4.3 8.7 0.00 0.00 0.00 29 1012.1
20260503220304 64 324 3.5 11.3 0.00 0.00 0.00 30 1012.2
20260503215803 64 272 2.6 7.0 0.00 0.00 0.00 29 1012.2
20260503215304 64 254 5.2 11.3 0.00 0.00 0.00 29 1012.3
20260503214303 64 273 5.2 8.7 0.00 0.00 0.00 29 1012.1
20260503213803 64 339 4.3 13.9 0.00 0.00 0.00 30 1012.2
20260503213304 64 349 6.1 11.3 0.00 0.00 0.00 29 1012.1
20260503212804 64 307 5.2 10.4 0.00 0.00 0.00 30 1012.2
20260503212305 64 1 4.3 7.0 0.00 0.00 0.00 31 1012.0
20260503211304 64 321 5.2 13.0 0.00 0.00 0.00 32 1012.2
20260503210803 64 296 4.3 11.3 0.00 0.00 0.00 31 1012.1
20260503205803 64 281 5.2 10.4 0.00 0.00 0.00 30 1012.1
20260503204803 63 310 7.0 15.6 0.00 0.00 0.00 31 1012.2
20260503204303 63 288 5.2 13.0 0.00 0.00 0.00 31 1012.2
20260503203803 63 296 6.1 12.2 0.00 0.00 0.00 31 1012.3
20260503203303 63 205 3.5 10.4 0.00 0.00 0.00 30 1012.3
20260503202804 63 295 8.7 17.4 0.00 0.00 0.00 31 1012.5
20260503202304 63 293 4.3 8.7 0.00 0.00 0.00 32 1012.4
20260503201303 63 302 4.3 10.4 0.00 0.00 0.00 32 1012.5
20260503200803 63 329 5.2 11.3 0.00 0.00 0.00 33 1012.6
20260503195803 63 230 1.7 7.8 0.00 0.00 0.00 33 1012.7
20260503195304 63 309 10.4 20.0 0.00 0.00 0.00 33 1012.9
20260503194303 62 321 8.7 13.9 0.00 0.00 0.00 34 1012.9
20260503193803 62 282 6.1 13.0 0.00 0.00 0.00 34 1013.0
20260503193303 61 335 6.1 13.0 0.00 0.00 0.00 37 1013.0
20260503192804 60 329 7.0 13.0 0.00 0.00 0.00 35 1013.1
20260503192305 61 301 7.8 14.8 0.00 0.00 0.00 33 1013.2
20260503191803 62 305 4.3 14.8 0.00 0.00 0.00 33 1013.3
20260503191304 62 279 7.0 12.2 0.00 0.00 0.00 32 1013.4
20260503190803 62 318 5.2 13.0 0.00 0.00 0.00 36 1013.2
20260503190303 62 326 7.8 14.8 0.00 0.00 0.00 36 1013.3
20260503185803 62 275 6.1 13.9 0.00 0.00 0.00 35 1013.3
20260503185304 62 319 7.8 13.9 0.00 0.00 0.00 34 1013.4
20260503184303 62 350 10.4 17.4 0.00 0.00 0.00 35 1013.5
20260503183803 62 312 7.0 10.4 0.00 0.00 0.00 36 1013.6
20260503183303 62 280 7.0 12.2 0.00 0.00 0.00 35 1013.7
20260503182803 62 290 6.1 17.4 0.00 0.00 0.00 35 1013.6
20260503181803 61 284 6.1 13.9 0.00 0.00 0.00 38 1013.7
20260503181303 60 291 8.7 17.4 0.00 0.00 0.00 36 1013.9
20260503180804 60 296 12.2 20.0 0.00 0.00 0.00 37 1013.9
20260503180303 60 346 7.8 13.9 0.00 0.00 0.00 37 1013.9
20260503175804 60 327 5.2 13.9 0.00 0.00 0.00 39 1013.9
20260503174804 59 325 7.8 14.8 0.00 0.00 0.00 39 1014.1
20260503174304 59 332 7.0 13.0 0.00 0.00 0.00 38 1014.0
20260503173804 59 340 7.8 17.4 0.00 0.00 0.00 38 1014.2
20260503173304 59 328 8.7 17.4 0.00 0.00 0.00 38 1014.1
20260503171804 58 310 6.1 11.3 0.00 0.00 0.00 38 1014.2
20260503171304 57 333 6.1 20.9 0.00 0.00 0.00 39 1014.3
20260503170804 58 343 11.3 19.1 0.00 0.00 0.00 36 1014.3
20260503170303 59 5 10.4 18.2 0.00 0.00 0.00 37 1014.1
20260503150804 54 316 7.8 15.6 0.00 0.00 0.00 39 1014.9
20260503150303 55 358 10.4 18.2 0.00 0.00 0.00 40 1014.9
20260503140303 53 352 11.3 18.2 0.00 0.00 0.00 44 1015.2
20260503131304 50 352 6.1 11.3 0.00 0.00 0.00 51 1015.2
20260503130803 50 313 7.8 17.4 0.00 0.00 0.00 51 1015.3
20260503130303 50 356 5.2 18.2 0.00 0.00 0.00 52 1015.3
20260503110804 41 304 7.0 12.2 0.00 0.00 0.00 71 1014.3
20260503110304 41 311 6.1 10.4 0.00 0.00 0.00 71 1014.2
20260503090304 41 299 7.0 11.3 0.00 0.00 0.00 75 1012.7
20260503081303 41 309 4.3 7.8 0.00 0.00 0.00 74 1012.4
20260503080803 41 300 5.2 11.3 0.00 0.00 0.00 74 1012.3
20260503080304 41 302 6.1 10.4 0.00 0.00 0.00 74 1012.2
20260503072804 42 299 7.0 10.4 0.00 0.00 0.00 73 1011.8
20260503072305 42 317 5.2 10.4 0.00 0.00 0.00 73 1011.8
20260503071804 42 296 7.8 10.4 0.00 0.00 0.00 73 1011.8
20260503070804 42 300 5.2 10.4 0.00 0.00 0.00 72 1011.8